Location: Fraisse
(45.1111°N, 4.1807°E)
Time: 11:43:11
(UTC+00:00)

Daily predictions for brighter satellites

Satellite Brightness Start Highest point End
(mag) Time Altitude Azimuth Time Altitude Azimuth Time Altitude Azimuth
Okean 2 Rocket 3.6 18:05:32 10° SSW 18:09:59 67° W 18:14:29 10° N
Cosmos 2219 Rocket 2.2 18:04:26 10° NNW 18:10:01 64° ENE 18:15:34 10° SE
Cosmos 2333 4.3 18:04:37 10° NNW 18:10:19 89° WSW 18:16:02 10° SSE
CZ-4 R/B 1.9 18:08:46 10° S 18:12:37 64° W 18:16:34 10° NNW
Cosmos 1025 Rocket 3.0 18:08:37 10° N 18:12:53 67° E 18:17:07 10° SSE
Cosmos 2184 Rocket 4.0 18:09:44 10° N 18:16:00 75° E 18:22:17 10° SSE
GP-B 3.3 18:14:54 10° NNE 18:19:13 49° E 18:23:31 10° SSE
NOAA 11 4.3 18:15:02 10° SSE 18:20:25 59° ENE 18:25:48 10° N
Cosmos 1536 Rocket 3.7 18:17:30 10° N 18:21:51 82° W 18:26:10 10° S
COSMOS 2428 2.7 18:16:20 10° NNW 18:22:03 80° ENE 18:27:44 10° SSE
Cosmos 2322 4.4 18:16:26 10° NNW 18:22:05 61° WSW 18:27:41 10° S
Meteor 2-15 4.4 18:16:32 10° S 18:22:37 72° E 18:28:46 10° NNE
Cosmos 2360 Rocket 3.9 18:18:00 10° NW 18:23:07 36° WSW 18:28:13 10° S
NOSS 0 Rocket 4.2 18:18:25 10° NNW 18:24:31 53° ENE 18:30:34 10° SE
Cosmos 1461 3.2 18:20:43 10° SW 18:24:42 66° NW 18:28:39 10° NNE
SJ-6B 4.3 18:22:10 10° ESE 18:25:15 21° ENE 18:28:19 10° NNE
SL-8 R/B 3.9 18:21:14 10° W 18:26:01 70° NNW 18:30:49 10° ENE
SAR-Lupe-2 4.5 18:24:30 10° NE 18:27:36 27° E 18:30:39 10° SSE
Cosmos 1544 3.1 18:24:48 10° S 18:28:19 57° E 18:31:52 10° NNE
YAOGAN 1 3.2 18:24:21 10° S 18:28:36 59° W 18:32:54 10° NNW
NOSS 3-4 (A) 3.9 18:22:30 10° NW 18:29:27 67° NE 18:37:04 10° SE
NOSS 3-4 (C) 3.9 18:22:37 10° NW 18:29:33 67° NE 18:37:10 10° SE
COSMOS 2455 3.7 18:24:08 10° NW 18:29:58 52° WSW 18:35:44 10° S
USA 32 4.5 18:25:09 10° N 18:30:23 69° W 18:35:34 10° S
Cosmos 389 Rocket 3.6 18:27:52 10° NNE 18:30:41 23° ENE 18:33:22 11° SE
Ariane Rocket 3.0 18:27:10 10° SSE 18:32:12 72° ENE 18:37:17 10° N
Aureole 1 Rocket 3.3 18:27:30 10° NNW 18:32:37 74° WSW 18:36:28 10° SSE
CZ-2D R/B 3.2 18:29:24 10° SSE 18:33:11 84° ENE 18:37:01 10° N
DMSP B5D1-3 4.5 18:28:52 10° NNE 18:33:59 81° ESE 18:39:05 10° SSW
MOS 1 4.5 18:31:59 10° SE 18:37:31 54° ENE 18:43:03 10° N
Cosmos 2227 Rocket 3.1 18:34:01 10° SSE 18:38:38 26° ESE 18:43:17 10° NE
ARGOS 4.2 18:35:07 11° ESE 18:39:13 26° ENE 18:43:36 10° N
Nadezhda 1 Rocket 3.9 18:35:04 10° S 18:41:07 77° E 18:47:13 10° N
Cosmos 2219 3.4 18:35:54 10° S 18:41:22 48° ESE 18:46:52 10° NE
HJ-1C 3.3 18:38:06 10° SSE 18:41:26 65° ENE 18:44:48 10° N
GEOS 3 Rocket 3.6 18:37:25 10° SE 18:42:29 66° NE 18:47:33 10° NNW
Cosmos 1939 Rocket 2.8 18:39:11 10° SSE 18:43:03 87° WSW 18:46:56 10° NNW
Cosmos 2056 Rocket 4.2 18:38:18 10° SSE 18:43:08 34° E 18:48:00 10° NE
USA 186 2.8 18:40:50 13° SE 18:43:24 30° ENE 18:46:27 10° N
Cosmos 407 Rocket 3.8 18:38:48 10° N 18:43:44 46° ENE 18:48:25 11° SE
Lacrosse 5 rocket 2.3 18:41:42 10° S 18:44:33 22° SE 18:46:01 17° E
ADEOS Rocket 4.2 18:39:39 10° NNE 18:46:07 31° E 18:52:48 10° SSE
Okean 1-7 Rocket 4.2 18:43:40 10° N 18:47:46 35° ENE 18:51:27 12° SE
Cosmos 2297 Rocket 2.8 18:44:04 10° SSE 18:49:05 34° ESE 18:54:06 10° NE
Cosmos 1295 Rocket 4.5 18:43:28 10° N 18:49:37 63° E 18:55:39 10° SSE
USA 234 4.5 18:47:04 10° NE 18:52:59 38° NNW 18:58:55 10° W
Cosmos 1624 Rocket 4.3 18:49:54 10° S 18:54:47 43° ESE 18:59:41 10° NNE
Meteor 1-15 Rocket 4.4 18:53:50 10° S 18:59:26 55° E 19:05:09 10° NNE
Meteor 1-4 Rocket 2.9 18:57:49 10° N 19:01:12 40° ENE 19:02:41 26° SE
Cosmos 405 Rocket 3.0 18:58:11 10° SSE 19:01:38 39° E 19:05:07 10° NNE
Cosmos 1140 Rocket 3.8 19:00:24 10° N 19:05:25 47° ENE 19:08:26 22° SE
Cosmos 1437 Rocket 3.9 19:02:24 10° NNE 19:05:31 23° ENE 19:05:42 23° ENE
CZ-2C R/B 4.1 19:04:56 22° E 19:07:02 28° ENE 19:11:41 10° N
ASTEX 1 3.3 19:05:35 10° N 19:10:30 81° E 19:15:23 10° S
ATLAS 2AS CENTAUR R/B 3.5 19:05:30 10° NW 19:12:53 55° WSW 19:19:40 10° SSE
EO 1 Delta rocket 4.4 19:06:16 10° SSE 19:13:03 87° E 19:18:26 10° N
In-Cosmos 22 4.0 19:07:48 10° N 19:13:10 69° ENE 19:18:25 11° SSE
Cosmos 1544 Rocket 4.1 19:11:23 23° SE 19:13:30 35° E 19:17:35 10° NNE
Cosmos 2084 Rocket 3.7 19:09:19 10° SSW 19:13:36 48° ESE 19:17:38 12° NE
Cosmos 1455 Rocket 3.4 19:09:42 10° SSE 19:13:53 44° E 19:18:07 10° NNE
SPOT 3 Rocket 3.5 19:10:35 13° SSE 19:15:08 68° ENE 19:20:16 10° N
Cosmos 2333 Rocket 3.5 19:09:58 10° NW 19:15:16 40° WSW 19:20:34 10° S
Meteor 1-24 Rocket 4.3 19:13:27 10° N 19:18:52 39° ENE 19:21:13 28° ESE
Cosmos 2237 Rocket 2.2 19:14:28 10° NNW 19:20:14 89° E 19:24:31 18° SSE
SJ-11-01 4.4 19:17:09 10° S 19:21:55 81° WSW 19:26:41 10° NNW
Cosmos 1674 3.5 19:19:41 10° N 19:22:42 32° ENE 19:22:42 32° ENE
ERBS 3.5 19:20:13 10° NNW 19:23:13 28° NNE 19:23:37 27° NE
ISS -3.9 19:22:52 10° SW 19:26:08 67° SSE 19:26:21 65° ESE
Cosmos 1371 Rocket 4.0 19:20:53 10° SSW 19:26:12 88° WNW 19:31:36 10° NNE
Cosmos 2341 Rocket 4.0 19:22:00 10° N 19:28:16 84° W 19:34:29 10° S
Cosmos 2181 Rocket 3.9 19:22:07 10° S 19:28:19 72° E 19:34:39 10° NNE
Cosmos 1805 4.2 19:30:39 31° NE 19:30:39 31° NE 19:33:08 10° NNE
Cosmos 1980 3.9 19:24:12 10° NNW 19:29:51 73° WSW 19:34:07 18° SSE
RESURS DK-1 4.1 19:28:03 10° N 19:30:49 18° NE 19:30:49 18° NE
Cosmos 1626 Rocket 4.2 19:29:38 10° N 19:33:19 35° ENE 19:33:19 35° ENE
CZ-2C R/B 4.0 19:31:25 10° N 19:35:51 67° WNW 19:40:14 10° SSW
Cosmos 1452 Rocket 4.3 19:38:51 31° ENE 19:38:51 31° ENE 19:42:16 10° NE
Cosmos 676 Rocket 3.9 19:34:01 10° NNW 19:39:18 74° ENE 19:41:12 40° SE
Resurs 1-3 3.5 19:42:46 55° SE 19:43:30 67° ENE 19:47:52 10° N
Cosmos 2218 Rocket 3.9 19:38:39 10° N 19:45:05 80° E 19:49:01 25° SSE
H-2A R/B 1.9 19:42:42 30° SSE 19:45:12 88° W 19:50:16 10° NNW
Meteor 2-5 Rocket 3.7 19:39:30 10° N 19:45:23 85° E 19:48:44 27° SSE
Cosmos 2366 rocket 3.9 19:40:41 10° N 19:47:04 78° E 19:50:40 28° SSE
Cosmos 864 Rocket 4.4 19:43:01 10° N 19:49:16 77° E 19:52:29 31° SSE
KORONAS-FOTON 4.3 19:46:26 10° N 19:49:22 47° NNE 19:49:22 47° NNE
SL-16 R/B 2.2 19:46:05 10° NNW 19:51:44 64° ENE 19:52:58 51° ESE
Resurs 01 Rocket 1.5 19:53:03 65° ENE 19:53:07 65° ENE 19:57:32 10° N
Cosmos 1602 Rocket 4.2 19:50:37 10° N 19:53:55 40° NE 19:53:55 40° NE
Meteor 1-22 Rocket 4.3 19:51:41 21° S 19:55:47 68° E 20:01:52 10° NNE
SL-8 Rocket 4.1 19:50:24 10° NNW 19:56:34 72° W 20:01:19 18° S
SJ-6B 4.3 19:57:08 18° SSW 19:59:40 37° W 20:03:30 10° NNW
CZ-2C R/B 4.2 19:56:33 10° NNE 19:58:59 22° NE 19:58:59 22° NE
SL-08 RB Rocket 3.7 20:01:13 65° S 20:01:55 87° WSW 20:06:37 10° NNW
Cosmos 2082 3.6 20:00:14 10° SSW 20:05:58 83° ESE 20:11:43 10° NNE
SL-8 R/B 3.9 20:04:10 10° WNW 20:08:55 59° N 20:09:15 57° NNE
Cosmos 1850 Rocket 4.2 20:06:42 10° NNW 20:11:24 54° NE 20:11:24 54° NE
MetOp-B 4.3 20:12:35 55° NE 20:12:35 55° NE 20:17:30 10° N
DELTA 2 R/B (1) 4.1 20:08:03 10° WSW 20:12:47 45° SSW 20:12:47 45° SSW
Cosmos 1766 4.1 20:15:15 50° NW 20:15:15 50° NW 20:18:31 10° N
ARGOS 3.9 20:16:39 28° SSW 20:19:11 49° W 20:24:25 10° NNW
Cosmos 2227 Rocket 3.0 20:16:53 10° SW 20:22:22 50° WNW 20:27:54 10° NNE
Lacrosse 5 rocket 2.9 20:19:50 10° WSW 20:21:45 27° W 20:21:45 27° W
Cosmos 1420 Rocket 4.3 20:24:48 10° SSW 20:30:04 66° WNW 20:35:24 10° NNE
ADEOS Rocket 3.9 20:24:38 10° N 20:31:53 62° WNW 20:39:29 10° SSW
Cosmos 2297 Rocket 3.4 20:27:42 10° SW 20:33:01 40° NW 20:38:22 10° NNE
BREEZE M DEB (TANK) 3.6 20:31:35 10° WNW 20:33:28 41° NW 20:33:28 41° NW
ERS-1 Rocket 4.3 20:40:43 30° NNE 20:40:43 30° NNE 20:43:33 10° N
Cosmos 1741 Rocket 4.4 20:36:43 10° NNW 20:41:12 63° NNW 20:41:12 63° NNW
Meteor 2-12 Rocket 4.5 20:39:06 10° N 20:44:34 71° NNE 20:44:34 71° NNE
CZ-2C R/B 4.0 20:46:00 42° WSW 20:46:38 44° W 20:51:55 10° NNW
Spot 2 Rocket 4.1 20:49:00 53° NW 20:49:00 53° NW 20:53:03 10° NNW
Cosmos 1943 4.2 20:47:59 10° NNW 20:51:54 37° NNE 20:51:54 37° NNE
Cosmos 1934 Rocket 4.5 20:50:16 10° N 20:54:50 49° NNE 20:54:50 49° NNE
Terra 4.2 21:33:21 19° N 21:33:21 19° N 21:34:43 10° N
Resurs 01 Rocket 4.4 21:30:38 13° W 21:30:38 13° W 21:32:15 10° WNW
SL-16 R/B 4.2 21:31:15 10° NW 21:34:52 20° W 21:34:52 20° W
CZ-2C R/B 4.2 21:36:43 10° N 21:40:29 34° NW 21:40:29 34° NW
CZ-4C R/B 4.1 21:45:02 10° NNW 21:50:38 32° NNE 21:50:38 32° NNE
USA 234 4.4 22:18:54 39° NNW 22:18:54 39° NNW 22:23:20 10° NW
